Home   Weather   Kvernaland   Past weeks

Flag for Norway Past Weather in Kvernaland, Norway — Yesterday and Last 2 Weeks

Now
65 °F

Passing clouds.


Feels Like: 65 °F
Forecast: 52 / 58 °F
Wind: 8 mph from Southeast

Location: Stavanger / Sola

Current Time: Aug 18, 2017 at 3:03:44 pm

Latest Report: Aug 18, 2017 at 2:00 pm


Visibility: 22 mi

Pressure: 29.64 "Hg

Humidity: 62%

Dew Point: 52 °F

Location of KvernalandLocation

Past Weather in Kvernaland — Graph

°F

Kvernaland Temperature Yesterday

Maximum temperature yesterday: 63 °F (at 11:00 am)
Minimum temperature yesterday: 55 °F (at 1:00 am)
Average temperature yesterday: 59 °F

High & Low Weather Summary for the Past Weeks

 TemperatureHumidityPressure
High65 °F (Aug 18, 1:00 pm)99% (Aug 18, 3:00 am)30.18 "Hg (Aug 18, 3:00 am)
Low47 °F (Aug 14, 5:00 am)55% (Aug 14, 2:00 pm)29.38 "Hg (Aug 3, 5:00 pm)
Average57 °F81%29.86 "Hg
* Reported Aug 3 2:00 pm — Aug 18 2:00 pm, Kvernaland. Weather by CustomWeather, © 2017

Note: Actual official high and low records may vary slightly from our data, if they occured in-between our weather recording intervals... More about our weather records

Advertising

Kvernaland Weather History for the Previous 24 Hours

Scroll right to see more
 ConditionsComfort  
Time TempWeatherWind HumidityBarometerVisibility
2:00 pm
Fri, Aug 18
65 °FPassing clouds.8 mph62%29.64 "Hg22 mi
1:00 pm65 °FPartly sunny.8 mph68%29.65 "Hg22 mi
12:00 pm63 °FScattered clouds.8 mph70%29.67 "Hg19 mi
11:00 am63 °FSunny.7 mph67%29.69 "Hg19 mi
10:00 am60 °FSunny.7 mph76%29.70 "Hg19 mi
9:00 am57 °FSunny.3 mph84%29.70 "Hg22 mi
8:00 am54 °FPartly sunny.2 mph94%29.71 "Hg16 mi
7:00 am52 °FSunny.2 mph95%29.73 "Hg14 mi
6:00 am52 °FClear.3 mph96%29.73 "Hg16 mi
5:00 am52 °FClear.3 mph98%29.74 "Hg9 mi
4:00 am52 °FClear.3 mph99%29.74 "Hg3 mi
3:00 am53 °FClear.1 mph99%29.74 "Hg0 mi
2:00 am54 °FClear.1 mph98%29.74 "Hg1 mi
1:00 am55 °FPassing clouds.1 mph97%29.75 "Hg3 mi
12:00 am57 °FPassing clouds.2 mph94%29.75 "Hg8 mi
11:00 pm
Thu, Aug 17
58 °FOvercast.5 mph94%29.74 "Hg7 mi
10:00 pm58 °FRain showers. Low clouds.2 mph95%29.74 "Hg10 mi
9:00 pm58 °FDrizzle. Overcast.5 mph94%29.73 "Hg10 mi
8:00 pm58 °FLight rain. Fog.7 mph92%29.72 "Hg3 mi
7:00 pm58 °FLight rain. Scattered clouds.7 mph89%29.72 "Hg11 mi
6:00 pm59 °FRain. Light fog.7 mph90%29.74 "Hg7 mi
5:00 pm58 °FRain. Light fog.8 mph91%29.75 "Hg4 mi
4:00 pm59 °FRain. Light fog.8 mph90%29.77 "Hg4 mi
3:00 pm59 °FLight rain. Passing clouds.10 mph81%29.78 "Hg14 mi
Weather by CustomWeather, © 2017

See weather overviewHow to use our weather pages